User: anonymous   Login
Location: Melbourne
(37.8170°S, 144.9670°E)
Time: 20:38:51
(UTC+10:00)
Language:

ERBS - Orbit

View from above orbital plane
View from above orbital plane
View from above satellite
View from above satellite

Ground track
Ground track

The orbit data is extracted from the following two-line orbital elements,

1 15354U 84108B   18109.88450916 +.00002508 +00000-0 +59570-4 0  9994
2 15354 057.0073 255.8320 0009343 003.6507 356.4616 15.45677977845328
Epoch (UTC): 19 April 2018 21:13:41
Eccentricity: 0.0009343
inclination: 57.0073°
perigee height: 423 km
apogee height: 436 km
right ascension of ascending node: 255.8320°
argument of perigee: 3.6507°
revolutions per day: 15.45677977
mean anomaly at epoch: 356.4616°
orbit number at epoch: 84532

The dashed part of the orbit path shows where the satellite is in the earth's shadow,  

DLR